Le nostre stazioni meteo in Italia

Pubblicità
Il mio iltempo24.it
Ancona, Italia (16190): Temperatura & dewpoint: 30.05.2020 19:00:00 - 05.06.2020 19:00:00 (CEST)Ancona, Italia (16190): velocità del vento: 30.05.2020 19:00:00 - 05.06.2020 19:00:00 (CEST)Ancona, Italia (16190): direzione del vento: 30.05.2020 19:00:00 - 05.06.2020 19:00:00 (CEST)Ancona, Italia (16190): reduced air pressure: 30.05.2020 19:00:00 - 05.06.2020 19:00:00 (CEST)Ancona, Italia (16190): precipitazioni: 30.05.2020 19:00:00 - 05.06.2020 19:00:00 (CEST)
Data & Tempo tt [°C] td [°C] ff [km/h] ff [kn] dd ppp [hPa] rr [mm]
05.06.2020 19:00:00 20,0 13,4 8 4 OSO 996,4 -
05.06.2020 18:00:00 22,7 11,4 15 8 OSO 995,5 -
05.06.2020 17:00:00 22,9 12,8 16 9 S 994,7 -
05.06.2020 16:00:00 21,9 13,4 16 9 S 995,1 -
05.06.2020 15:00:00 20,5 11,1 22 12 S 995,1 -
05.06.2020 14:00:00 21,5 11,2 11 6 S 994,8 -
05.06.2020 13:00:00 21,3 9,5 22 12 SO 994,7 -
05.06.2020 12:00:00 21,7 10,8 24 13 SSO 993,7 -
05.06.2020 11:00:00 19,7 12,4 24 13 SSO 994,1 -
05.06.2020 10:00:00 18,3 12,9 21 11 SO 993,8 -
05.06.2020 09:00:00 16,4 14,3 16 9 SO 994,3 -
05.06.2020 08:00:00 16,2 14,0 11 6 SSO 994,0 -
05.06.2020 07:00:00 16,8 15,1 4 2 S 993,7 -
05.06.2020 06:00:00 16,7 15,2 11 6 E 993,1 -
05.06.2020 05:00:00 16,9 15,4 15 8 NNE 992,8 -
05.06.2020 04:00:00 16,9 15,0 9 5 NNO 993,3 -
05.06.2020 03:00:00 19,7 12,2 13 7 S 991,6 -
05.06.2020 02:00:00 19,4 12,1 18 10 S 992,8 0,0
05.06.2020 01:00:00 18,6 12,3 21 11 SSO 993,8 -
05.06.2020 00:00:00 18,8 12,5 18 10 S 993,6 -
04.06.2020 23:00:00 18,7 13,2 22 12 S 993,9 -
04.06.2020 22:00:00 19,3 13,8 16 9 S 995,4 -
04.06.2020 21:00:00 19,0 14,6 16 9 SSE 995,2 -
04.06.2020 20:00:00 20,1 14,4 15 8 SSE 996,3 -
04.06.2020 19:00:00 19,8 14,7 26 14 SSE 996,7 -
04.06.2020 18:00:00 20,3 15,9 21 11 ESE 997,3 -
04.06.2020 17:00:00 19,3 14,9 16 9 SE 998,2 -
04.06.2020 16:00:00 17,7 13,3 16 9 E 998,8 -
04.06.2020 15:00:00 17,2 13,2 15 8 E 999,4 -
04.06.2020 14:00:00 18,1 11,6 13 7 SSE 1000,1 -
04.06.2020 13:00:00 18,8 12,7 8 4 SSO 1000,3 -
04.06.2020 12:00:00 19,5 10,7 22 12 SO 1000,6 -
04.06.2020 11:00:00 21,7 8,5 16 9 SO 1000,6 -
04.06.2020 10:00:00 22,3 9,1 9 5 S 1000,3 -
04.06.2020 09:00:00 21,4 13,7 22 12 SSE 1000,5 -
04.06.2020 08:00:00 20,1 10,2 8 4 S 1000,7 0,0
04.06.2020 07:00:00 19,1 7,1 21 11 S 1000,3 -
04.06.2020 06:00:00 18,4 6,5 21 11 SSO 1000,0 -
04.06.2020 05:00:00 19,4 7,1 15 8 SSE 1000,4 -
04.06.2020 04:00:00 19,2 7,9 8 4 SSO 1000,9 -
04.06.2020 03:00:00 19,7 9,2 4 2 S 1001,1 -
04.06.2020 02:00:00 19,5 10,2 5 3 S 1001,3 0,0
04.06.2020 01:00:00 19,5 10,2 9 5 S 1001,5 -
04.06.2020 00:00:00 20,3 9,8 13 7 SSO 1001,7 -
03.06.2020 23:00:00 21,9 10,3 18 10 SO 1001,9 -
03.06.2020 22:00:00 22,2 10,3 24 13 SO 1001,7 -
03.06.2020 21:00:00 21,3 11,6 15 8 SSO 1001,1 -
03.06.2020 20:00:00 21,6 11,3 18 10 SSO 1001,1 0,0
03.06.2020 19:00:00 24,4 8,7 21 11 SSE 1000,7 -
03.06.2020 18:00:00 24,9 9,2 15 8 ESE 1000,8 -
03.06.2020 17:00:00 24,9 11,4 8 4 E 1001,5 -
03.06.2020 16:00:00 25,0 10,8 9 5 ESE 1002,2 -
03.06.2020 15:00:00 24,3 10,9 13 7 E 1002,5 -
03.06.2020 14:00:00 24,2 11,1 8 4 E 1002,9 0,0
03.06.2020 13:00:00 24,6 12,5 5 3 E 1003,6 -
03.06.2020 12:00:00 23,0 12,8 9 5 E 1004,1 -
03.06.2020 11:00:00 23,3 13,1 13 7 ENE 1004,5 -
03.06.2020 10:00:00 21,6 12,9 8 4 NE 1004,9 -
03.06.2020 09:00:00 22,3 11,6 5 3 NNO 1004,9 -
03.06.2020 08:00:00 19,2 10,9 8 4 SSO 1004,9 0,0
03.06.2020 07:00:00 17,6 10,2 8 4 SSO 1004,9 -
03.06.2020 06:00:00 17,5 10,1 9 5 S 1004,8 -
03.06.2020 05:00:00 18,0 10,3 5 3 ONO 1005,2 -
03.06.2020 04:00:00 17,4 10,5 9 5 S 1005,4 -
03.06.2020 03:00:00 16,8 11,5 13 7 S 1005,8 -
03.06.2020 02:00:00 17,6 11,1 11 6 SSE 1006,2 0,0
03.06.2020 01:00:00 17,6 9,7 8 4 SSO 1006,7 -
03.06.2020 00:00:00 19,1 8,7 24 13 SE 1006,5 -
02.06.2020 23:00:00 19,3 11,0 16 9 SE 1007,1 -
02.06.2020 22:00:00 19,9 7,2 5 3 SSE 1006,6 -
02.06.2020 21:00:00 20,1 7,7 8 4 S 1006,0 -
02.06.2020 20:00:00 22,7 8,0 8 4 S 1005,8 0,0
02.06.2020 19:00:00 23,4 6,6 8 4 ESE 1005,7 -
02.06.2020 18:00:00 23,6 6,3 9 5 E 1006,1 -
02.06.2020 17:00:00 23,5 9,4 11 6 E 1007,0 -
02.06.2020 16:00:00 22,5 10,6 13 7 E 1007,6 -
02.06.2020 15:00:00 23,8 10,4 11 6 ENE 1008,1 -
02.06.2020 14:00:00 22,9 7,0 8 4 ENE 1008,7 0,0
02.06.2020 13:00:00 23,5 9,1 4 2 ENE 1009,1 -
02.06.2020 12:00:00 24,0 8,8 4 2 NE 1009,5 -
02.06.2020 11:00:00 22,6 8,3 2 1 SO 1009,8 -
02.06.2020 10:00:00 21,1 7,3 8 4 NO 1010,5 -
02.06.2020 09:00:00 19,8 8,4 8 4 ONO 1010,7 -
02.06.2020 08:00:00 18,0 8,5 4 2 O 1010,6 0,0
02.06.2020 07:00:00 16,1 7,5 8 4 OSO 1010,9 -
02.06.2020 06:00:00 15,6 6,8 8 4 SSO 1010,9 -
02.06.2020 05:00:00 15,6 7,0 9 5 S 1011,0 -
02.06.2020 04:00:00 15,9 6,8 8 4 S 1011,5 -
02.06.2020 03:00:00 16,2 7,1 8 4 S 1011,8 -
02.06.2020 02:00:00 16,8 6,2 5 3 SSO 1012,0 0,0
02.06.2020 01:00:00 17,3 6,4 4 2 OSO 1011,8 -
02.06.2020 00:00:00 16,3 7,4 5 3 S 1012,0 -
01.06.2020 23:00:00 17,1 8,7 5 3 S 1011,8 -
01.06.2020 22:00:00 17,3 8,6 5 3 OSO 1011,9 -
01.06.2020 21:00:00 18,0 7,6 4 2 NO 1011,4 -
01.06.2020 20:00:00 19,1 9,2 9 5 ONO 1011,6 0,0
01.06.2020 19:00:00 20,2 9,4 5 3 NNO 1011,8 -
01.06.2020 18:00:00 20,6 8,5 8 4 N 1011,9 -
01.06.2020 17:00:00 20,7 9,2 5 3 N 1012,2 -
01.06.2020 16:00:00 20,7 10,1 9 5 N 1012,3 -
01.06.2020 15:00:00 21,2 9,4 8 4 N 1012,5 -
01.06.2020 14:00:00 20,8 10,2 5 3 N 1012,5 0,0
01.06.2020 13:00:00 21,0 11,0 15 8 NNE 1012,6 -
01.06.2020 12:00:00 20,5 10,8 11 6 N 1012,7 -
01.06.2020 11:00:00 19,6 9,1 13 7 N 1012,7 -
01.06.2020 10:00:00 18,1 9,6 13 7 N 1012,8 -
01.06.2020 09:00:00 16,7 11,8 9 5 NNO 1012,7 -
01.06.2020 08:00:00 16,0 10,9 9 5 NO 1012,7 0,0
01.06.2020 07:00:00 14,3 10,3 4 2 O 1012,6 -
01.06.2020 06:00:00 14,1 10,5 4 2 O 1012,1 -
01.06.2020 05:00:00 14,1 9,7 9 5 ONO 1011,7 -
01.06.2020 04:00:00 14,3 9,3 8 4 O 1011,7 -
01.06.2020 03:00:00 14,6 9,4 4 2 OSO 1011,8 -
01.06.2020 02:00:00 15,5 10,2 5 3 NO 1011,9 0,0
01.06.2020 01:00:00 14,8 9,1 4 2 SSO 1011,8 -
01.06.2020 00:00:00 14,9 8,8 4 2 NNE 1011,7 -
31.05.2020 23:00:00 15,3 8,7 4 2 NNE 1011,5 -
31.05.2020 22:00:00 15,7 8,4 4 2 N 1010,9 -
31.05.2020 21:00:00 16,4 8,3 2 1 N 1010,2 -
31.05.2020 20:00:00 16,9 9,5 5 3 N 1010,0 0,0
31.05.2020 19:00:00 17,8 10,1 8 4 N 1009,8 -
31.05.2020 18:00:00 18,1 10,7 8 4 N 1009,9 -
31.05.2020 17:00:00 17,9 10,7 9 5 NE 1010,0 -
31.05.2020 16:00:00 18,5 10,3 5 3 NE 1010,2 -
31.05.2020 15:00:00 19,3 10,8 8 4 SSE 1010,4 -
31.05.2020 14:00:00 18,9 11,4 11 6 E 1010,6 0,0
31.05.2020 13:00:00 19,6 11,6 11 6 ENE 1010,7 -
31.05.2020 12:00:00 19,4 11,9 8 4 SSO 1011,0 -
31.05.2020 11:00:00 16,9 11,1 11 6 E 1011,4 -
31.05.2020 10:00:00 16,6 11,5 9 5 S 1011,4 -
31.05.2020 09:00:00 15,7 10,8 8 4 S 1011,3 -
31.05.2020 08:00:00 14,9 10,3 8 4 SSO 1011,3 0,0
31.05.2020 07:00:00 14,1 9,1 9 5 SSO 1010,9 -
31.05.2020 06:00:00 13,3 8,7 9 5 SSO 1010,7 -
31.05.2020 05:00:00 13,4 8,8 8 4 SSO 1010,7 -
31.05.2020 04:00:00 13,1 8,7 9 5 SSO 1010,9 -
31.05.2020 03:00:00 14,0 9,2 8 4 SSO 1011,1 -
31.05.2020 02:00:00 14,5 9,3 5 3 S 1011,3 0,0
31.05.2020 01:00:00 15,3 9,2 8 4 N 1011,4 -
31.05.2020 00:00:00 15,2 8,8 0 0 N 1011,5 -
30.05.2020 23:00:00 15,5 9,3 5 3 NNE 1011,2 -
30.05.2020 22:00:00 15,6 8,0 11 6 NNE 1011,0 -
30.05.2020 21:00:00 16,4 8,6 4 2 N 1010,4 -
30.05.2020 20:00:00 18,3 8,2 5 3 N 1010,0 -
30.05.2020 19:00:00 19,3 9,1 2 1 N 1009,9 -

tt = Temperatura
td = dewpoint
ff = velocità del vento
dd = direzione del vento
ppp = reduced air pressure
rr = precipitazioni

Stazioni seguenti

WeatherPro
AMSI
MeteoEarth